CW4672 Weather Reports


time (UTC)temp
F
wind
direction
speed
knots
gust
knots
rain 1hr
in
rain 24hr
in
rain mn
in
humidity
%
barometer
mb
20260503211318 83 23 0.0 5.2 0.00 0.00 0.00 46 1009.7
20260503210828 83 26 0.0 5.2 0.00 0.00 0.00 44 1009.7
20260503210318 83 36 0.0 1.7 0.00 0.00 0.00 50 1009.7
20260503205826 83 5 0.0 0.9 0.00 0.00 0.00 44 1009.8
20260503205317 83 42 0.0 0.9 0.00 0.00 0.00 44 1009.9
20260503204831 83 348 0.0 1.7 0.00 0.00 0.00 49 1009.9
20260503204322 82 42 0.0 6.1 0.00 0.00 0.00 45 1009.9
20260503203812 82 67 0.0 3.5 0.00 0.00 0.00 50 1010.1
20260503203321 82 34 0.0 1.7 0.00 0.00 0.00 49 1010.1
20260503202852 82 30 0.0 4.3 0.00 0.00 0.00 51 1010.2
20260503202320 81 345 0.9 5.2 0.00 0.00 0.00 48 1010.2
20260503201828 81 355 0.0 6.1 0.00 0.00 0.00 47 1010.2
20260503201318 81 339 0.0 4.3 0.00 0.00 0.00 49 1010.4
20260503200826 81 5 0.0 4.3 0.00 0.00 0.00 48 1010.4
20260503200319 81 13 0.0 0.9 0.00 0.00 0.00 50 1010.5
20260503195829 80 9 0.0 4.3 0.00 0.00 0.00 52 1010.6
20260503195320 80 5 0.0 4.3 0.00 0.00 0.00 51 1010.7
20260503194830 80 323 0.0 3.5 0.00 0.00 0.00 49 1010.7
20260503194320 79 14 0.0 7.8 0.00 0.00 0.00 55 1010.8
20260503193830 79 360 0.9 7.8 0.00 0.00 0.00 52 1010.8
20260503193320 79 360 0.0 5.2 0.00 0.00 0.00 55 1010.9
20260503192831 79 335 0.0 1.7 0.00 0.00 0.00 53 1011.0
20260503192322 79 13 0.0 6.1 0.00 0.00 0.00 54 1011.0
20260503191816 78 330 0.9 6.1 0.00 0.00 0.00 53 1011.1
20260503191325 78 326 0.0 4.3 0.00 0.00 0.00 55 1011.2
20260503190814 78 13 0.0 5.2 0.00 0.00 0.00 59 1011.2
20260503190324 78 13 0.0 4.3 0.00 0.00 0.00 58 1011.4
20260503185814 78 326 0.0 0.9 0.00 0.00 0.00 57 1011.4
20260503185345 77 57 0.0 0.9 0.00 0.00 0.00 57 1011.4
20260503184814 77 38 0.0 0.9 0.00 0.00 0.00 58 1011.4
20260503184345 77 323 0.0 0.0 0.00 0.00 0.00 56 1011.4
20260503183814 77 355 0.0 0.9 0.00 0.00 0.00 57 1011.6
20260503183324 76 63 0.0 0.9 0.00 0.00 0.00 60 1011.7
20260503182819 76 310 0.0 0.0 0.00 0.00 0.00 61 1011.7
20260503182330 75 345 0.0 0.9 0.00 0.00 0.00 60 1011.6
20260503181819 75 331 0.0 0.9 0.00 0.00 0.00 57 1011.7
20260503181350 75 317 0.0 0.0 0.00 0.00 0.00 61 1011.8
20260503180818 74 5 0.0 0.0 0.00 0.00 0.00 62 1011.8
20260503180327 73 19 0.0 0.0 0.00 0.00 0.00 62 1011.9
20260503175816 73 234 0.0 0.0 0.00 0.00 0.00 65 1011.9
20260503175326 73 234 0.0 0.0 0.00 0.00 0.00 65 1011.9
20260503174815 72 233 0.0 0.0 0.00 0.00 0.00 68 1012.0
20260503174325 72 223 0.0 0.0 0.00 0.00 0.00 69 1012.1
20260503173814 71 215 0.0 0.0 0.00 0.00 0.00 70 1012.0
20260503173324 70 176 0.0 0.0 0.00 0.00 0.00 71 1012.1
20260503172832 69 211 0.0 0.0 0.00 0.00 0.00 71 1012.2
20260503172341 69 245 0.0 0.0 0.00 0.00 0.00 71 1012.2
20260503171813 68 226 0.0 0.0 0.00 0.00 0.00 72 1012.2
20260503171324 68 198 0.0 0.0 0.00 0.00 0.00 71 1012.3
20260503170815 67 202 0.0 0.0 0.00 0.00 0.00 73 1012.3
20260503170325 67 234 0.0 0.0 0.00 0.00 0.00 73 1012.3
20260503150850 52 63 0.0 0.0 0.00 0.00 0.00 97 1013.0
20260503150324 52 63 0.0 0.0 0.00 0.00 0.00 97 1013.0
20260503131331 44 63 0.0 0.0 0.00 0.00 0.00 96 1012.7
20260503130820 44 63 0.0 0.0 0.00 0.00 0.00 95 1012.7
20260503130330 44 63 0.0 0.0 0.00 0.00 0.00 95 1012.7
20260503110822 47 63 0.0 0.0 0.00 0.00 0.00 94 1012.9
20260503110315 47 63 0.0 0.0 0.00 0.00 0.00 94 1013.0
20260503090324 50 63 0.0 0.0 0.00 0.00 0.00 92 1013.1
20260503081327 52 96 0.0 0.0 0.00 0.00 0.00 91 1013.1
20260503080817 52 96 0.0 0.0 0.00 0.00 0.00 90 1013.0
20260503080347 52 96 0.0 0.0 0.00 0.00 0.00 89 1012.9
20260503072840 55 38 0.0 0.0 0.00 0.00 0.00 86 1012.9
20260503072330 56 69 0.0 0.0 0.00 0.00 0.00 85 1012.9
20260503071818 56 69 0.0 0.0 0.00 0.00 0.00 86 1012.9
20260503071328 56 69 0.0 0.0 0.00 0.00 0.00 86 1012.9
20260503070818 56 69 0.0 0.0 0.00 0.00 0.00 86 1012.9
20260503070326 56 71 0.0 0.0 0.00 0.00 0.00 85 1013.0
20260503060330 58 28 0.0 0.0 0.00 0.00 0.00 82 1012.8
20260503054818 60 28 0.0 0.0 0.00 0.00 0.00 77 1012.8
20260503054312 60 28 0.0 0.0 0.00 0.00 0.00 77 1012.7
20260503053822 61 28 0.0 0.0 0.00 0.00 0.00 76 1012.8
20260503053313 60 42 0.0 0.0 0.00 0.00 0.00 77 1012.8
20260503052845 60 245 0.0 0.0 0.00 0.00 0.00 78 1012.8
20260503052314 59 245 0.0 0.0 0.00 0.00 0.00 79 1012.8
20260503051824 59 245 0.0 0.0 0.00 0.00 0.00 80 1012.7
20260503051314 58 245 0.0 0.0 0.00 0.00 0.00 81 1012.7
20260503050824 58 245 0.0 0.0 0.00 0.00 0.00 81 1012.7
20260503050314 59 245 0.0 0.0 0.00 0.00 0.00 81 1012.6
20260503045825 59 245 0.0 0.0 0.00 0.00 0.00 80 1012.7
20260503045318 59 245 0.0 0.0 0.00 0.00 0.00 80 1012.6
20260503044828 60 245 0.0 0.0 0.00 0.00 0.00 79 1012.6
20260503044339 60 245 0.0 0.0 0.00 0.00 0.00 78 1012.5
20260503043849 60 245 0.0 0.0 0.00 0.00 0.00 79 1012.4
20260503043339 61 245 0.0 0.0 0.00 0.00 0.00 77 1012.3
20260503042829 61 245 0.0 0.0 0.00 0.00 0.00 77 1012.2
20260503042320 61 245 0.0 0.0 0.00 0.00 0.00 76 1012.2
20260503041831 62 245 0.0 0.0 0.00 0.00 0.00 76 1012.1
20260503041321 62 245 0.0 0.0 0.00 0.00 0.00 77 1012.0
20260503040811 62 245 0.0 0.0 0.00 0.00 0.00 76 1011.9
20260503040326 63 245 0.0 0.0 0.00 0.00 0.00 76 1011.8
20260503035815 63 245 0.0 0.0 0.00 0.00 0.00 74 1011.7
20260503035346 63 245 0.0 0.0 0.00 0.00 0.00 73 1011.6
20260503034815 64 245 0.0 0.0 0.00 0.00 0.00 72 1011.5
20260503034346 64 245 0.0 0.0 0.00 0.00 0.00 71 1011.4
20260503033815 65 245 0.0 0.0 0.00 0.00 0.00 69 1011.3
20260503033326 66 245 0.0 0.0 0.00 0.00 0.00 66 1011.2
20260503032815 67 315 0.0 0.0 0.00 0.00 0.00 64 1011.2
20260503032326 68 315 0.0 0.0 0.00 0.00 0.00 63 1011.2
20260503031815 69 315 0.0 0.0 0.00 0.00 0.00 61 1011.1
20260503031329 70 315 0.0 0.0 0.00 0.00 0.00 59 1011.1
20260503030819 70 321 0.0 0.0 0.00 0.00 0.00 58 1010.9
20260503030350 71 321 0.0 0.0 0.00 0.00 0.00 57 1010.9
20260503025820 71 322 0.0 0.0 0.00 0.00 0.00 57 1010.8
20260503025350 72 355 0.0 0.0 0.00 0.00 0.00 56 1010.8
20260503024821 72 333 0.0 0.0 0.00 0.00 0.00 57 1010.8
20260503024311 73 346 0.0 0.0 0.00 0.00 0.00 55 1010.8
20260503023823 73 344 0.0 0.0 0.00 0.00 0.00 55 1010.8
20260503023334 74 306 0.0 0.0 0.00 0.00 0.00 55 1010.7
20260503022823 74 343 0.0 0.0 0.00 0.00 0.00 54 1010.7
20260503022317 74 11 0.0 0.0 0.00 0.00 0.00 54 1010.7
20260503021828 74 21 0.0 0.0 0.00 0.00 0.00 54 1010.7
20260503021338 75 22 0.0 0.9 0.00 0.00 0.00 53 1010.7
20260503020828 75 42 0.0 0.0 0.00 0.00 0.00 53 1010.7
20260503020319 75 14 0.0 0.0 0.00 0.00 0.00 52 1010.7
20260503015830 75 43 0.0 0.0 0.00 0.00 0.00 52 1010.7
20260503015320 75 31 0.0 0.9 0.00 0.00 0.00 54 1010.6
20260503014831 75 21 0.0 0.9 0.00 0.00 0.00 53 1010.6
20260503014321 76 20 0.0 0.9 0.00 0.00 0.00 53 1010.6
20260503013828 76 63 0.0 0.0 0.00 0.00 0.00 51 1010.6
20260503013322 76 14 0.0 0.9 0.00 0.00 0.00 53 1010.6
20260503012852 76 65 0.0 1.7 0.00 0.00 0.00 53 1010.7
20260503012322 76 350 0.0 1.7 0.00 0.00 0.00 53 1010.7
20260503011812 76 5 0.0 5.2 0.00 0.00 0.00 52 1010.7
20260503011321 76 33 0.9 5.2 0.00 0.00 0.00 52 1010.7
20260503010832 76 5 0.0 4.3 0.00 0.00 0.00 52 1010.7
20260503010320 76 355 0.0 6.1 0.00 0.00 0.00 52 1010.7
20260503005831 76 10 0.9 7.0 0.00 0.00 0.00 51 1010.7
20260503005320 76 5 0.0 7.0 0.00 0.00 0.00 52 1010.8
20260503004811 76 46 0.0 7.0 0.00 0.00 0.00 51 1010.8
20260503004325 76 5 0.9 7.0 0.00 0.00 0.00 51 1010.8
20260503003815 76 5 0.9 7.0 0.00 0.00 0.00 51 1010.9
20260503003323 76 351 0.0 3.5 0.00 0.00 0.00 54 1010.9
20260503002813 77 355 0.0 3.5 0.00 0.00 0.00 52 1010.8
20260503002324 77 346 0.0 0.0 0.00 0.00 0.00 51 1010.8
20260503001815 77 39 0.0 8.7 0.00 0.00 0.00 53 1010.8
20260503001324 76 32 0.9 8.7 0.00 0.00 0.00 53 1010.9
20260503000814 76 345 1.7 5.2 0.00 0.00 0.00 50 1010.8
20260503000323 76 63 0.0 7.0 0.00 0.00 0.00 55 1010.9
20260502235817 76 28 0.0 11.3 0.00 0.00 0.00 51 1011.0
20260502235328 76 342 4.3 11.3 0.00 0.00 0.00 51 1011.0
20260502234814 76 11 0.9 8.7 0.00 0.00 0.00 55 1011.0
20260502234324 76 360 0.9 7.0 0.00 0.00 0.00 56 1011.1
20260502233814 76 355 0.9 8.7 0.00 0.00 0.00 54 1011.1
20260502233324 76 5 1.7 8.7 0.00 0.00 0.00 53 1011.2
20260502232814 76 355 0.9 5.2 0.00 0.00 0.00 52 1011.3
20260502232325 76 52 0.0 7.0 0.00 0.00 0.00 53 1011.4
20260502231816 76 11 0.9 7.0 0.00 0.00 0.00 52 1011.5
20260502231327 76 360 0.0 7.0 0.00 0.00 0.00 54 1011.5
20260502230820 76 355 0.9 7.0 0.00 0.00 0.00 57 1011.5
20260502230329 76 12 0.0 8.7 0.00 0.00 0.00 54 1011.6
20260502225819 76 24 0.9 8.7 0.00 0.00 0.00 58 1011.6
20260502225329 76 5 0.0 7.8 0.00 0.00 0.00 59 1011.7
20260502224818 75 80 0.9 9.6 0.00 0.00 0.00 55 1011.9
20260502224328 76 76 1.7 9.6 0.00 0.00 0.00 58 1011.9
20260502223821 75 32 0.0 8.7 0.00 0.00 0.00 58 1012.0
20260502223331 75 11 0.0 8.7 0.00 0.00 0.00 60 1012.1
20260502222820 75 355 1.7 7.8 0.00 0.00 0.00 57 1012.2
20260502222312 74 23 0.9 8.7 0.00 0.00 0.00 58 1012.3
20260502221821 74 32 0.9 8.7 0.00 0.00 0.00 59 1012.4
20260502221331 74 355 0.0 7.8 0.00 0.00 0.00 58 1012.4
20260502220821 74 351 2.6 7.8 0.00 0.00 0.00 58 1012.4
20260502220352 74 5 0.0 6.1 0.00 0.00 0.00 59 1012.5
20260502215821 74 14 1.7 6.1 0.00 0.00 0.00 59 1012.7
20260502215311 74 27 0.0 6.1 0.00 0.00 0.00 59 1012.7
20260502214822 74 355 0.0 6.1 0.00 0.00 0.00 60 1012.8
20260502214331 73 44 0.9 9.6 0.00 0.00 0.00 61 1012.8
20260502213825 73 50 1.7 10.4 0.00 0.00 0.00 59 1012.9
20260502213314 72 360 6.1 11.3 0.00 0.00 0.00 60 1012.8
20260502212845 72 5 5.2 13.0 0.00 0.00 0.00 59 1013.0
20260502212315 72 347 6.1 13.0 0.00 0.00 0.00 58 1013.0
20260502211826 73 76 4.3 10.4 0.00 0.00 0.00 60 1013.0